Change the Weather History Date:

Monday, October 10, 2011

  Actual Average Record
Temperature  
Mean Temperature 70 °F 56 °F  
Max Temperature 83 °F 67 °F 89 °F (1939)
Min Temperature 56 °F 46 °F 32 °F (1895)
Degree Days  
Heating Degree Days 0 9  
Month to date heating degree days 54 75  
Since 1 July heating degree days 81 140  
Cooling Degree Days 5 0  
Month to date cooling degree days 9 7  
Year to date cooling degree days 1434 962  
Growing Degree Days 20 (Base 50)    
Moisture  
Dew Point 56 °F    
Average Humidity 61    
Maximum Humidity 84    
Minimum Humidity 37    
Precipitation  
Precipitation 0.00 in 0.15 in 1.57 in (1971)
Month to date precipitation 0.07 1.52  
Year to date precipitation 48.43 36.77  
Sea Level Pressure  
Sea Level Pressure 30.21 in    
Wind  
Wind Speed 3 mph (North)    
Max Wind Speed 9 mph    
Max Gust Speed 12 mph    
Visibility 10 miles    
Events      
T = Trace of Precipitation, MM = Missing Value Source: NWS Daily Summary

Daily Weather History Graph

Daily Weather History Graph

Search for Another Location

Airport or City:

Trip Planner

Search our weather history database for the weather conditions in past years. The results will help you decide how hot, cold, wet, or windy it might be!

Date:

Astronomy

Oct. 10, 2011 Rise Set
Actual Time 7:04 AM EDT 6:27 PM EDT
Civil Twilight 6:37 AM EDT 6:54 PM EDT
Nautical Twilight 6:05 AM EDT 7:26 PM EDT
Astronomical Twilight 5:34 AM EDT 7:57 PM EDT
Moon 5:30 PM EDT (10/10) 5:43 AM EDT (10/10)
Length of Visible Light 12h 17m
Length of Day
11h 23m
Waxing Gibbous, 98% of the Moon is Illuminated
Oct 10
Waxing Gibbous
Oct 11
Full
Oct 19
Last Quarter
Oct 26
New
Nov 2
First Quarter

Hourly Weather History & Observations

Time (EDT) Temp. Heat Index Dew Point Humidity Pressure Visibility Wind Dir Wind Speed Gust Speed Precip Events Conditions
12:53 AM 61.0 °F - 55.9 °F 83% 30.28 in 10.0 mi NW 3.5 mph - N/A   Clear
1:53 AM 63.0 °F - 55.0 °F 75% 30.27 in 10.0 mi NW 4.6 mph - N/A   Clear
2:53 AM 61.0 °F - 54.0 °F 78% 30.27 in 10.0 mi NNW 3.5 mph - N/A   Clear
3:53 AM 59.0 °F - 53.1 °F 81% 30.25 in 10.0 mi NNW 3.5 mph - N/A   Clear
4:53 AM 57.0 °F - 52.0 °F 83% 30.25 in 10.0 mi NW 3.5 mph - N/A   Clear
6:53 AM 60.1 °F - 52.0 °F 75% 30.25 in 10.0 mi NNW 4.6 mph - N/A   Clear
7:53 AM 61.0 °F - 53.1 °F 75% 30.26 in 10.0 mi NNW 3.5 mph - N/A   Clear
8:53 AM 66.0 °F - 55.0 °F 68% 30.27 in 10.0 mi North 4.6 mph - N/A   Clear
9:53 AM 72.0 °F - 55.9 °F 57% 30.27 in 10.0 mi North 4.6 mph - N/A   Clear
10:53 AM 77.0 °F - 55.9 °F 48% 30.26 in 10.0 mi North 6.9 mph - N/A   Clear
11:53 AM 80.1 °F 80.1 °F 55.0 °F 42% 30.25 in 10.0 mi NNE 3.5 mph - N/A   Clear
12:53 PM 81.0 °F 80.8 °F 55.9 °F 42% 30.22 in 10.0 mi NE 3.5 mph - N/A   Clear
1:53 PM 80.6 °F 80.5 °F 55.4 °F 42% 30.21 in 10.0 mi SE 3.5 mph - N/A   Clear
2:53 PM 82.9 °F 82.0 °F 55.0 °F 38% 30.18 in 10.0 mi NE 3.5 mph - N/A   Clear
3:53 PM 82.0 °F 81.2 °F 53.1 °F 37% 30.16 in 10.0 mi Calm Calm - N/A   Clear
4:53 PM 81.0 °F 80.5 °F 54.0 °F 39% 30.15 in 10.0 mi Calm Calm - N/A   Clear
5:53 PM 77.0 °F - 57.9 °F 52% 30.15 in 10.0 mi Calm Calm - N/A   Clear
6:53 PM 73.9 °F - 59.0 °F 59% 30.14 in 10.0 mi Calm Calm - N/A   Clear
7:53 PM 69.8 °F - 60.8 °F 73% 30.16 in 10.0 mi NNW 3.5 mph - N/A   Clear
8:53 PM 68.0 °F - 61.0 °F 78% 30.14 in 10.0 mi Calm Calm - N/A   Clear
9:53 PM 66.0 °F - 60.1 °F 81% 30.14 in 10.0 mi Calm Calm - N/A   Clear
10:53 PM 66.0 °F - 60.1 °F 81% 30.14 in 10.0 mi NNW 3.5 mph - N/A   Clear
11:53 PM 64.0 °F - 59.0 °F 84% 30.14 in 10.0 mi Calm Calm - N/A   Clear